Weather History for Topeka, KS

Change the Weather History Date:

Sunday, March 16, 2014

  Actual Average Record
Temperature  
Mean Temperature 36 °F 45 °F  
Max Temperature 44 °F 57 °F 81 °F (2012)
Min Temperature 27 °F 33 °F 7 °F (1900)
Degree Days  
Heating Degree Days 29 20  
Month to date heating degree days 420 365  
Since 1 July heating degree days 4742 4332  
Cooling Degree Days 0 0  
Month to date cooling degree days 0 0  
Year to date cooling degree days 0 0  
Moisture  
Dew Point 24 °F    
Average Humidity 58    
Maximum Humidity 82    
Minimum Humidity 34    
Precipitation  
Precipitation T in 0.08 in 0.90 in (1946)
Month to date precipitation 0.45 1.11  
Year to date precipitation 2.11 3.29  
Snow  
Snow T in 0.00 in 5.50 in (1893)
Month to date snowfall 2.4 1.0  
Year to date snowfall 21.3 10.4  
Since 1 July snowfall 25.6 16.9  
Snow Depth 0.00 in    
Sea Level Pressure  
Sea Level Pressure 30.16 in    
Wind  
Wind Speed 15 mph (NNE)    
Max Wind Speed 30 mph    
Max Gust Speed 42 mph    
Visibility 10 miles    
Events      
T = Trace of Precipitation, MM = Missing Value Source: NWS Daily Summary

Daily Weather History Graph

Daily Weather History Graph

Search for Another Location

Airport:

Trip Planner

Search our weather history database for the weather conditions in past years. The results will help you decide how hot, cold, wet, or windy it might be!

Date:

Astronomy

Mar. 16, 2014 Rise Set
Actual Time 7:32 AM CDT 7:30 PM CDT
Civil Twilight 7:05 AM CDT 7:57 PM CDT
Nautical Twilight 6:34 AM CDT 8:28 PM CDT
Astronomical Twilight 6:03 AM CDT 8:59 PM CDT
Moon 7:48 PM CDT (3/16) 7:16 AM CDT (3/16)
Length of Visible Light 12h 51m
Length of Day
11h 58m
Full, 100% of the Moon is Illuminated
Mar 16
Full
Mar 16
Full
Mar 23
Last Quarter
Mar 30
New
Apr 7
First Quarter

Hourly Weather History & Observations

Time (CDT) Temp. Windchill Dew Point Humidity Pressure Visibility Wind Dir Wind Speed Gust Speed Precip Events Conditions
12:29 AM 45.0 °F 37.1 °F 33.1 °F 63% 29.99 in 10.0 mi NNE 19.6 mph 33.4 mph N/A   Mostly Cloudy
12:53 AM 42.1 °F 32.8 °F 30.0 °F 62% 30.01 in 10.0 mi North 21.9 mph 31.1 mph N/A   Overcast
1:19 AM 41.0 °F 30.0 °F 28.9 °F 62% 30.03 in 10.0 mi NNE 28.8 mph 41.4 mph N/A   Overcast
1:53 AM 41.0 °F 30.9 °F 28.0 °F 60% 30.04 in 10.0 mi NNE 24.2 mph 40.3 mph 0.00 in   Overcast
2:53 AM 39.0 °F 29.0 °F 27.0 °F 62% 30.08 in 10.0 mi NNE 20.7 mph 27.6 mph N/A   Overcast
3:53 AM 37.0 °F 27.4 °F 28.9 °F 73% 30.10 in 10.0 mi North 17.3 mph 29.9 mph 0.00 in   Overcast
4:00 AM 36.0 °F 25.3 °F 28.9 °F 76% 30.10 in 10.0 mi North 19.6 mph 26.5 mph N/A   Overcast
4:45 AM 35.1 °F 23.5 °F 28.9 °F 78% 30.11 in 10.0 mi North 21.9 mph 28.8 mph N/A   Overcast
4:53 AM 35.1 °F 24.1 °F 28.9 °F 78% 30.11 in 10.0 mi North 19.6 mph 32.2 mph N/A   Overcast
5:16 AM 35.1 °F 24.1 °F 28.9 °F 78% 30.12 in 9.0 mi NNE 19.6 mph 32.2 mph N/A   Overcast
5:49 AM 33.8 °F 22.5 °F 30.2 °F 87% 30.12 in 6.0 mi North 19.6 mph 28.8 mph N/A   Overcast
5:53 AM 34.0 °F 21.8 °F 28.9 °F 82% 30.13 in 5.0 mi North 23.0 mph 32.2 mph N/A   Haze
6:53 AM 33.1 °F 21.5 °F 27.0 °F 78% 30.15 in 10.0 mi North 19.6 mph 31.1 mph N/A   Overcast
7:53 AM 30.9 °F 18.7 °F 25.0 °F 79% 30.19 in 8.0 mi North 19.6 mph 33.4 mph N/A   Overcast
8:53 AM 30.9 °F 18.4 °F 24.1 °F 76% 30.22 in 10.0 mi North 20.7 mph 33.4 mph N/A   Overcast
9:02 AM 30.9 °F 18.7 °F 24.1 °F 76% 30.22 in 10.0 mi North 19.6 mph 33.4 mph N/A   Overcast
9:51 AM 30.2 °F 18.5 °F 21.2 °F 69% 30.24 in 10.0 mi North 17.3 mph 27.6 mph N/A   Overcast
9:53 AM 30.9 °F 20.7 °F 21.9 °F 69% 30.25 in 10.0 mi North 13.8 mph 26.5 mph N/A   Overcast
10:53 AM 33.1 °F 21.9 °F 21.9 °F 64% 30.29 in 10.0 mi North 18.4 mph 29.9 mph N/A   Overcast
11:53 AM 37.0 °F 27.7 °F 24.1 °F 59% 30.30 in 10.0 mi North 16.1 mph 31.1 mph N/A   Overcast
12:53 PM 41.0 °F 31.9 °F 23.0 °F 49% 30.28 in 10.0 mi NNE 19.6 mph 28.8 mph N/A   Unknown
1:53 PM 42.1 °F 34.2 °F 23.0 °F 47% 30.25 in 10.0 mi NE 16.1 mph 28.8 mph N/A   Partly Cloudy
2:53 PM 44.1 °F 36.2 °F 21.0 °F 40% 30.22 in 10.0 mi North 18.4 mph 25.3 mph N/A   Clear
3:53 PM 44.1 °F 36.5 °F 19.0 °F 37% 30.19 in 10.0 mi North 17.3 mph 25.3 mph N/A   Clear
4:53 PM 42.1 °F 33.9 °F 18.0 °F 38% 30.17 in 10.0 mi North 17.3 mph 27.6 mph N/A   Clear
5:53 PM 41.0 °F 33.5 °F 16.0 °F 36% 30.18 in 10.0 mi North 13.8 mph - N/A   Clear
6:53 PM 39.0 °F 31.8 °F 18.0 °F 43% 30.19 in 10.0 mi North 11.5 mph - N/A   Clear
7:53 PM 34.0 °F 28.0 °F 18.0 °F 52% 30.19 in 10.0 mi North 6.9 mph - N/A   Clear
8:53 PM 32.0 °F 25.6 °F 18.0 °F 56% 30.20 in 10.0 mi North 6.9 mph - N/A   Clear
9:53 PM 30.9 °F 25.2 °F 18.0 °F 59% 30.18 in 10.0 mi NE 5.8 mph - N/A   Clear
10:53 PM 30.0 °F 26.5 °F 18.0 °F 61% 30.17 in 10.0 mi NE 3.5 mph - N/A   Clear
11:53 PM 28.0 °F 24.2 °F 18.0 °F 66% 30.14 in 10.0 mi East 3.5 mph - N/A   Clear